Welcome to the New NWS' Forecast!
Most changes are behind the scenes, but click here for differences you might notice.
Latest weather observations around

Lansing Municipal Airport (KIGQ)

Using English Units (Switch to International System of Units)
Date/ Time (CDT) Wind (mph) Vis. (mi) Weather Sky Cond. Temp (°F) Rel. Humidity Wind Chill (°F) Heat Index (°F) Pressure Precip. (in)
Air Dwpt 6 hour Altimeter (inHg) Sea level (inHg) 1 hr 3 hr 6 hr
Max Min
Oct 17 08:55 NW 11 10 Cloudy OVC035 43 31     63% 36   30.24        
Oct 17 08:35 NW 10 10 Mostly Cloudy BKN035 43 32     64% 37   30.23        
Oct 17 08:15 WNW 8 10 Clear CLR 43 32     64% 38   30.21        
Oct 17 07:55 WNW 10 10 Clear CLR 42 31     65% 36   30.2        
Oct 17 07:35 WNW 11 10 Clear CLR 42 31     66% 35   30.19        
Oct 17 07:15 WNW 9 10 Clear CLR 42 31     67% 36   30.17        
Oct 17 06:55 WNW 8 10 Clear CLR 42 31     66% 37   30.17        
Oct 17 06:35 W 8 10 Clear CLR 42 32     66% 37   30.16        
Oct 17 06:15 W 7 10 Clear CLR 42 32     67% 38   30.15        
Oct 17 05:55 W 8 10 Clear CLR 43 32     66% 38   30.14        
Oct 17 05:35 W 9 10 Clear CLR 43 32     65% 38   30.14        
Oct 17 05:15 W 9 10 Clear CLR 43 32     65% 38   30.13        
Oct 17 04:55 W 10 10 Clear CLR 43 33     68% 37   30.13        
Oct 17 04:35 W 8 10 Clear CLR 42 34     72% 37   30.12        
Oct 17 04:15 W 7 10 Clear CLR 41 34     76% 36   30.12        
Oct 17 03:55 W 7 10 Clear CLR 41 35     79% 36   30.11        
Oct 17 03:35 W 7 10 Clear CLR 41 35     80% 36   30.11        
Oct 17 03:15 WSW 7 10 Clear CLR 41 35     79% 37   30.1        
Oct 17 02:55 WSW 7 10 Clear CLR 42 35     78% 37   30.1        
Oct 17 02:35 W 6 10 Clear CLR 42 35     78% 38   30.1        
Oct 17 02:15 WSW 6 10 Clear CLR 42 35     75% 39   30.1        
Oct 17 01:55 W 7 10 Clear CLR 44 36     73% 40   30.08        
Oct 17 01:35 WSW 7 10 Clear CLR 44 36     73% 40   30.09        
Oct 17 01:15 W 7 10 Clear CLR 45 36     70% 41   30.09        
Oct 17 00:55 WSW 6 10 Clear CLR 45 36     70% 42   30.09        
Oct 17 00:35 W 8 10 Clear CLR 45 36     68% 41   30.09        
Oct 17 00:15 W 10 10 Clear CLR 46 35     65% 41   30.08        
Oct 16 23:55 WSW 9 10 Clear CLR 46 35     64% 42   30.09        
Oct 16 23:35 WSW 10 10 Clear CLR 47 34     62% 42   30.09        
Oct 16 22:55 WSW 14 10 Clear CLR 48 34     57% 43   30.08        
Oct 16 22:35 WSW 11 10 Clear CLR 48 34     57% 44   30.08        
Oct 16 22:15 SW 9 10 Clear CLR 48 34     58% 43   30.08        
Oct 16 21:55 SW 8 10 Clear CLR 47 34     60% 43   30.08        
Oct 16 21:35 SW 7 10 Clear CLR 47 34     59% 44   30.08        
Oct 16 21:15 SW 9 10 Clear CLR 47 33     60% 42   30.07        
Oct 16 20:55 SW 9 10 Clear CLR 47 33     59% 42   30.07        
Oct 16 20:35 SW 10 10 Clear CLR 47 33     57% 43   30.06        
Oct 16 20:15 SW 10 10 Clear CLR 49 33     54% 44   30.06        
Oct 16 19:55 SW 9 10 Clear CLR 48 33     54% 44   30.06        
Oct 16 19:35 SW 10 10 Clear   49 33     53% 45   30.05        
Oct 16 19:15 SW 9 10 Clear   49 32     53% 45   30.04        
Oct 16 18:55 SSW 8 10 Clear   49 32     52% 46   30.04        
Oct 16 18:35 SSW 9 10 Clear CLR 50 32     51% 46   30.03        
Oct 16 18:15 SW 8 10 Clear CLR 52 32     46%     30.04        
Oct 16 17:55 SW 10 10 Clear CLR 54 32     42%     30.03        
Oct 16 17:35 SW 15 10 Clear CLR 55 31     40%     30.03        
Oct 16 17:15 SW 13 10 Clear CLR 56 32     39%     30.03        
Oct 16 16:55 WSW 13 10 Clear CLR 56 31     39%     30.03        
Oct 16 16:35 WSW 10 10 Clear CLR 56 31     38%     30.03        
Oct 16 16:15 SW 14 10 Clear CLR 57 32     39%     30.03        
Oct 16 15:55 SW 17 10 Clear CLR 57 31     37%     30.03        
Oct 16 15:35 SW 17 10 Clear CLR 57 31     38%     30.04        
Oct 16 15:15 WSW 16 10 Clear CLR 56 31     37%     30.05        
Oct 16 14:55 SW 17 10 Clear CLR 56 30     37%     30.06        
Oct 16 14:35 SW 20 10 Clear and Windy CLR 56 31     38%     30.07        
Oct 16 14:15 WSW 15 10 Clear CLR 55 30     38%     30.08        
Oct 16 13:55 WSW 21 10 Clear and Windy CLR 54 30     39%     30.1        
Oct 16 13:35 WSW 21 10 Clear and Windy CLR 54 31     41%     30.1        
Oct 16 13:15 SW 23 10 Clear and Windy CLR 53 30     42%     30.11        
Oct 16 12:55 SW 23 10 Clear and Windy CLR 52 30     43%     30.12        
Oct 16 12:35 SW 20 10 Clear and Windy CLR 51 30     44%     30.14        
Oct 16 12:15 SW 22 10 Clear and Windy CLR 50 31     46%     30.15        
Oct 16 11:55 WSW 21 10 Clear and Windy CLR 49 30     46% 43   30.16        
Oct 16 11:35 WSW 17 10 Clear CLR 49 30     49% 43   30.16        
Oct 16 11:15 WSW 20 10 Clear and Windy CLR 48 31     52% 42   30.17        
Oct 16 10:55 WSW 17 10 Clear CLR 47 31     53% 40   30.18        
Oct 16 10:35 SW 21 10 Clear and Windy CLR 47        % 39   30.19        
Oct 16 10:15 SW 20 10 Clear and Windy CLR 46        % 38   30.21        
Oct 16 09:55 WSW 14 10 Clear CLR 44        % 37   30.21        
Oct 16 09:35 SW 14 10 Clear CLR 43        % 36   30.21        
Oct 16 09:15 SW 10 10 Clear CLR 41        % 35   30.22        
Oct 16 08:55 SW 9 10 Clear CLR 39        % 33   30.23        
Oct 16 08:35 SW 7 10 Clear CLR 37        % 32   30.23        
Oct 16 08:15 SW 8 10 Clear CLR 35        % 28   30.23        
Oct 16 07:55 SW 8 10 Clear CLR 33        % 26   30.23        
Oct 16 07:35 SW 7 10 Clear CLR 32        % 26   30.24        
Oct 16 07:15 SW 8 10 Clear CLR 32        % 25   30.23        
Oct 16 06:55 SW 7 10 Clear CLR 32        % 26   30.24        
Oct 16 06:35 SW 7 10 Clear CLR 32        % 25   30.24        
Oct 16 06:15 SSW 7 10 Clear CLR 32        % 26   30.24        
Oct 16 05:55 SSW 8 10 Clear CLR 32        % 25   30.24        
Oct 16 05:35 SSW 7 10 Clear CLR 31        % 24   30.24        
Oct 16 05:15 SSW 5 10 Clear CLR 30        % 25   30.24        
Oct 16 04:55 S 7 10 Clear CLR 29        % 22   30.24        
Oct 16 04:35 SW 3 10 Clear CLR 32        % 29   30.25        
Oct 16 04:15 SW 5 10 Clear CLR 32        % 27   30.25        
Oct 16 03:55 SW 6 10 Clear CLR 32        % 26   30.25        
Oct 16 03:35 SW 6 10 Clear CLR 32        % 26   30.26        
Oct 16 03:15 SW 6 10 Clear CLR 31 29     90% 26   30.26        
Oct 16 02:55 SSW 5 10 Clear CLR 29 26     89% 24   30.26        
Oct 16 02:35 Calm 10 Clear CLR 31 28     87%     30.26        
Oct 16 02:15 SSW 3 10 Clear CLR 31 27     86% 28   30.26        
Oct 16 01:55 SW 5 10 Clear CLR 32 29     87% 27   30.26        
Oct 16 01:35 Calm 10 Clear CLR 32 29     86%     30.26        
Oct 16 01:15 Calm 10 Clear CLR 32 28     86%     30.25        
Oct 16 00:55 Calm 10 Clear CLR 31 28     87%     30.25        
Oct 16 00:35 Calm 10 Clear CLR 32 27     84%     30.25        
Oct 16 00:15 WSW 5 10 Clear CLR 34 29     82% 30   30.25        
Oct 15 23:55 SW 5 10 Clear CLR 35 29     80% 30   30.25        
Oct 15 23:35 SW 3 10 Clear CLR 33 29     85% 30   30.25        
Oct 15 23:15 Calm 10 Clear CLR 34 30     85%     30.25        
Oct 15 22:55 Calm 10 Clear CLR 35 29     80%     30.25        
Oct 15 22:35 WSW 3 10 Clear CLR 36 29     75% 34   30.25        
Oct 15 22:15 W 5 10 Clear CLR 36 29     75% 33   30.26        
Oct 15 21:55 W 5 10 Clear CLR 37 30     75% 33   30.25        
Oct 15 21:35 WSW 5 10 Clear CLR 38 30     73% 34   30.26        
Oct 15 21:15 Calm 10 Clear CLR 37 30     75%     30.25        
Oct 15 20:55 Calm 10 Clear CLR 38 30     73%     30.26        
Oct 15 20:35 WSW 5 10 Clear CLR 39        % 35   30.26        
Oct 15 20:20 W 6 10 Clear CLR 39        % 35   30.26        
Oct 15 19:55 WSW 5 10 Clear CLR 39 29     67% 36   30.26        
Oct 15 19:35 W 5 10 Clear CLR 40 29     66% 36   30.25        
Oct 15 19:15 W 6 10 Clear CLR 41 29     61% 37   30.25        
Oct 15 18:55 W 6 10 Clear CLR 42 28     58% 38   30.24        
Oct 15 18:35 W 7 10 Clear CLR 43        % 38   30.24        
Oct 15 18:15 W 8 10 Clear CLR 44        % 39   30.23        
Oct 15 17:55 WNW 7 10 Clear CLR 45        % 41   30.23        
Oct 15 17:35 W 11 10 Clear CLR 46        % 40   30.22        
Oct 15 17:15 WNW 10 10 Clear CLR 46        % 41   30.22        
Oct 15 16:55 W 13 10 Clear CLR 47        % 41   30.21        
Oct 15 16:35 WNW 10 10 Clear CLR 47        % 42   30.21        
Oct 15 16:15 WNW 11 10 Clear CLR 47        % 42   30.21        
Oct 15 15:55 W 15 10 Clear CLR 47        % 40   30.2        
Oct 15 15:35 W 16 10 Clear CLR 47        % 41   30.2        
Oct 15 15:15 WNW 9 10 Clear CLR 47        % 43   30.2        
Oct 15 14:55 NW 15 10 Partly Cloudy SCT044 47        % 40   30.19        
Oct 15 14:35 WNW 9 10 Clear CLR 47        % 42   30.2        
Oct 15 14:15 W 10 10 Clear CLR 46 30     53% 41   30.2        
Oct 15 13:55 W 11 10 Partly Cloudy SCT034 46 30     53% 40   30.21        
Oct 15 13:35 W 7 10 Partly Cloudy SCT034 45        % 42   30.21        
Oct 15 13:15 W 10 10 Partly Cloudy SCT032 45        % 39   30.21        
Oct 15 12:55 WNW 8 10 Partly Cloudy SCT030 44        % 39   30.21        
Oct 15 12:35 WNW 9 10 Partly Cloudy SCT030 44 32     62% 39   30.21        
Oct 15 12:15 NW 8 10 Mostly Cloudy BKN028 41 31     65% 36   30.21        
Oct 15 11:55 WNW 10 10 Cloudy OVC028 41 30     65% 35   30.21        
Oct 15 11:35 WNW 10 10 Cloudy OVC028 42        % 36   30.2        
Oct 15 11:15 WNW 9 10 Cloudy OVC028 41 31     68% 36   30.2        
Oct 15 10:55 NW 10 10 Mostly Cloudy BKN028 41 30     66% 35   30.2        
Oct 15 10:35 NW 16 10 Cloudy OVC026 40        % 32   30.19        
Oct 15 10:15 WNW 9 10 Cloudy OVC026 40        % 34   30.19        
Oct 15 09:55 NW 16 10 Mostly Cloudy BKN024 41        % 32   30.18        
Oct 15 09:35 NNW 11 10 Cloudy OVC020 39        % 32   30.17        
Oct 15 09:15 NW 10 10 Cloudy BKN020 OVC085 39        % 33   30.16        
Oct 15 08:55 WNW 9 10 Cloudy SCT016 OVC085 38        % 32   30.16        
Oct 15 08:35 NW 15 10 Cloudy OVC014 38        % 29   30.15        
Oct 15 08:15 NW 9 10 Cloudy OVC014 38        % 31   30.14        
Oct 15 07:55 NW 9 10 Cloudy OVC014 38        % 31   30.13        
Oct 15 07:35 NW 14 10 Cloudy OVC014 38        % 29   30.13        
Oct 15 07:15 NW 10 10 Cloudy BKN012 OVC019 38        % 31   30.11        
Oct 15 06:55 NW 10 10 Cloudy OVC011 38 35     88% 32   30.1        
Oct 15 06:35 NW 11 10 Cloudy BKN009 OVC013 39        % 31   30.08        
Oct 15 06:15 NW 11 10 Cloudy OVC009 39 37     91% 32   30.08        
Oct 15 05:55 NW 10 10 Drizzle OVC009 40 38     92% 34   30.06        
Oct 15 05:35 NW 9 10 Light Drizzle BKN009 BKN019 OVC039 41        % 35   30.06        
Oct 15 05:15 NW 10 7 Rain BKN006 BKN015 OVC039 41 39     92% 35   30.05        
Oct 15 04:55 NW 7 10 Light Rain OVC008 43 41     93% 39   30.04        
Oct 15 04:35 WNW 10 5 Drizzle BKN010 BKN017 OVC030 43 41     93% 37   30.04        
Oct 15 04:15 WNW 14 4 Drizzle BKN006 OVC018 45 43     95% 38   30.02        
Oct 15 03:55 NW 8 3 Heavy Drizzle OVC006 45 44     95% 41   30.01        
Oct 15 03:35 WNW 6 3 Heavy Drizzle OVC008 45 44     95% 42   30.02        
Oct 15 03:15 WNW 6 3 Rain OVC008 45 43     93% 42   30.01        
Oct 15 02:55 W 8 3 Rain BKN008 OVC013 45 44     93% 41   30.01        
Oct 15 02:35 WNW 6 4 Rain SCT008 BKN013 OVC024 46 44     92% 43   30.01        
Oct 15 02:15 WNW 6 4 Light Drizzle SCT010 BKN018 OVC027 46 44     91% 43   30        
Oct 15 01:55 WNW 6 4 Drizzle SCT006 BKN011 OVC029 46 44     92% 43   29.99        
Oct 15 01:35 WNW 6 5 Light Drizzle BKN008 OVC011 47 45     92% 44   30        
Oct 15 01:15 NW 6 5 Light Drizzle BKN011 OVC033 47 45     92% 44   29.99        
Oct 15 00:55 WNW 3 4 Rain SCT009 OVC031 47 46     93% 46   29.98        
Oct 15 00:35 Calm 4 Light Drizzle   48 46     93%     29.98        
Oct 15 00:15 Calm 5 Light Rain OVC027 48 45     91%     29.99        
Oct 14 23:55 Calm 5 Light Rain   48 45     91%     29.99        
Oct 14 23:35 Calm 5 Light Rain SCT022 BKN041 OVC060 48 45     92%     29.99        
Oct 14 23:15 Calm 5 Light Rain OVC025 48 45     90%     29.99        
Oct 14 22:55 NNW 6 5 Rain SCT025 BKN037 OVC090 48 45     87% 46   30        
Oct 14 22:35 NNW 3 7 Rain BKN023 OVC034 49 44     83% 48   30.01        
Oct 14 22:15 NW 6 10 Light Rain BKN019 OVC028 50 44     82% 48   30.02        
Oct 14 21:55 NNW 5 10 Cloudy BKN019 OVC037 50 44     78%     30.01        
Oct 14 21:35 NNW 7 7 Cloudy OVC035 51 44     76%     30.02        
Oct 14 21:15 NW 10 10 Cloudy OVC032 52 43     70%     30.02        
Oct 14 20:55 NW 7 10 Cloudy OVC034 53 43     70%     30.01        
Oct 14 20:35 NNW 8 10 Cloudy OVC036 53 44     70%     30        
Oct 14 20:15 NW 3 10 Cloudy OVC036 53 44     70%     30        
Oct 14 19:55 NW 7 10 Cloudy OVC036 53 44     69%     29.99        
Oct 14 19:35 NW 5 10 Cloudy OVC036 54 44     70%     29.99        
Oct 14 19:15 WNW 3 10 Cloudy OVC036 54 44     69%     29.99        
Oct 14 18:55 NW 5 10 Cloudy OVC036 54 44     68%     29.98        
Oct 14 18:35 WNW 5 10 Cloudy OVC038 55 45     68%     29.98        
Oct 14 18:15 WNW 6 10 Cloudy OVC038 55 44     66%     29.97        
Oct 14 17:55 NW 7 10 Cloudy OVC038 56 45     65%     29.97        
Oct 14 17:35 WNW 5 10 Mostly Cloudy BKN038 57 45     65%     29.97        
Oct 14 17:15 WSW 6 10 Clear CLR 57 45     63%     29.96        
Oct 14 16:55 SW 6 10 Clear CLR 58 45     60%     29.96        
Oct 14 16:35 SSW 6 10 Clear CLR 59 45     60%     29.97        
Oct 14 16:15 SW 6 10 Partly Cloudy SCT037 58 44     59%     29.97        
Oct 14 15:55 W 3 10 Mostly Cloudy BKN037 60 44     56%     29.98        
Oct 14 15:35 Calm 10 Partly Cloudy SCT035 58 44     59%     29.98        
Oct 14 15:15 SSW 7 10 Mostly Cloudy BKN035 59 44     57%     29.98        
Oct 14 14:55 S 3 10 Partly Cloudy SCT033 59 44     58%     29.99        
Oct 14 14:35 WSW 8 10 Partly Cloudy SCT033 SCT060 59 44     59%     29.99        
Oct 14 14:15 SSW 7 10 Mostly Cloudy SCT033 BKN060 57 43     59%     29.99        
Oct 14 13:55 SW 7 10 Mostly Cloudy SCT031 BKN060 57 44     61%     29.99        
Oct 14 13:35 SW 9 10 Mostly Cloudy SCT031 BKN060 57 43     59%     30.01        
Oct 14 13:15 SW 8 10 Mostly Cloudy BKN031 57 43     60%     30.01        
Oct 14 12:55 SSW 5 10 Partly Cloudy SCT031 55 43     62%     30.02        
Oct 14 12:35 SSW 5 10 Partly Cloudy SCT029 56 42     61%     30.03        
Oct 14 12:15 SSW 9 10 Clear CLR 55 42     63%     30.03        
Oct 14 11:55 S 9 10 Clear CLR 54 41     62%     30.03        
Oct 14 11:35 SSW 5 10 Clear CLR 54 41     62%     30.04        
Oct 14 11:15 SSE 7 10 Clear CLR 53 41     63%     30.05        
Oct 14 10:55 S 10 10 Clear CLR 52 40     64%     30.05        
Oct 14 10:35 SSE 10 10 Clear CLR 51 40     64%     30.06        
Oct 14 10:15 S 7 10 Clear CLR 51 40     68%     30.06        
Oct 14 09:55 S 7 10 Clear CLR 49 41     72% 46   30.06        
Oct 14 09:35 S 5 10 Clear CLR 48 40     75% 46   30.07        
Oct 14 09:15 SSE 5 10 Clear CLR 45 39     78% 43   30.07        
Oct 14 08:55 SSE 5 10 Clear CLR 44 39     85% 41   30.06        
Oct 14 08:35 SE 3 10 Clear CLR 41 38     88% 40   30.07        
Oct 14 08:15 SE 5 7 Clear CLR 39 37     91% 36   30.06        
Oct 14 07:55 Calm 7 Clear CLR 36 35     95%     30.06        
Oct 14 07:35 ESE 3 7 Clear CLR 36 35     94% 33   30.05        
Oct 14 07:15 Calm 7 Clear CLR 36 35     97%     30.06        
Oct 14 06:55 ESE 3 7 Clear CLR 35 35     97% 33   30.06        
Oct 14 06:35 Calm 10 Clear CLR 35 33     94%     30.06        
Oct 14 06:15 Calm 10 Clear CLR 34 33     93%     30.06        
Oct 14 05:55 Calm 10 Clear CLR 35 34     93%     30.05        
Oct 14 05:35 Calm 10 Clear CLR 36 33     91%     30.05        
Oct 14 05:15 Calm 10 Clear CLR 37 35     91%     30.05        
Oct 14 04:55 Calm 10 Clear CLR 37 35     92%     30.05        
Oct 14 04:35 Calm 10 Clear CLR 37 35     91%     30.04        
Oct 14 04:15 Calm 10 Clear CLR 37 34     89%     30.04        
Oct 14 03:55 Calm 10 Clear CLR 39 35     86%     30.03        
Oct 14 03:35 Calm 10 Clear CLR 39 36     87%     30.03        
Oct 14 03:15 Calm 10 Clear CLR 40 36     86%     30.03        
Oct 14 02:55 Calm 10 Clear CLR 40 36     86%     30.03        
Oct 14 02:35 Calm 10 Clear CLR 39 36     88%     30.03        
Oct 14 02:15 S 3 10 Clear CLR 38 35     89% 36   30.03        
Oct 14 01:55 S 5 10 Clear CLR 37 34     89% 34   30.03        
Oct 14 01:35 S 6 10 Clear CLR 38 35     88% 33   30.03        
Oct 14 01:15 Calm 10 Clear CLR 39 35     86%     30.03        
Oct 14 00:55 S 6 10 Clear CLR 37 34     89% 32   30.03        
Oct 14 00:35 S 3 10 Clear CLR 38 35     87% 36   30.04        
Oct 14 00:15 SSE 3 10 Clear CLR 38 34     87% 35   30.02        
Oct 13 23:55 S 6 10 Clear CLR 37 33     85% 33   30.03        
Oct 13 23:35 SSE 3 10 Clear CLR 38 34     86% 36   30.03        
Oct 13 23:15 S 3 10 Clear CLR 38 34     84% 36   30.03        
Oct 13 22:55 S 5 10 Clear CLR 39 34     82% 36   30.03        
Oct 13 22:35 S 3 10 Clear CLR 39 35     84% 37   30.03        
Oct 13 22:15 S 5 10 Clear CLR 40 35     81% 37   30.02        
Oct 13 21:55 S 5 10 Clear CLR 40 35     81% 37   30.03        
Oct 13 21:35 S 6 10 Clear CLR 41 35     81% 37   30.03        
Oct 13 21:15 S 7 10 Clear CLR 42 36     79% 38   30.03        
Oct 13 20:55 SSW 6 10 Clear CLR 44 36     76% 40   30.03        
Oct 13 20:35 SSW 6 10 Clear CLR 44 37     75% 41   30.03        
Oct 13 20:15 SSW 7 10 Clear CLR 44 36     74% 40   30.02        
Oct 13 19:55 S 7 10 Clear CLR 45 36     73% 41   30.02        
Oct 13 19:35 S 6 10 Clear CLR 45 37     74% 41   30.03        
Oct 13 19:15 SSW 6 10 Clear CLR 45 37     74% 41   30.02        
Oct 13 18:55 SSW 6 10 Clear CLR 46 36     69% 43   30.01        
Oct 13 18:35 SSW 7 10 Clear CLR 47 36     66% 43   30.01        
Oct 13 18:15 SW 7 10 Clear CLR 47 36     64% 44   30.01        
Oct 13 17:55 SSW 9 10 Clear CLR 48 36     63% 44   30.01        
Oct 13 17:35 SSW 9 10 Clear CLR 49 36     60% 45   30.01        
Oct 13 17:15 SSW 9 10 Clear CLR 49 35     57% 46   30        
Oct 13 16:55 SSW 9 10 Clear CLR 50 35     57%     30        
Oct 13 16:35 SW 8 10 Clear CLR 51 36     57%     29.99        
Oct 13 16:15 S 13 10 Clear CLR 51 36     55%     30        
Oct 13 15:55 SSW 11 10 Clear CLR 52 36     55%     30        
Oct 13 15:35 SSW 11 10 Clear CLR 52 36     54%     30        
Oct 13 15:15 SSW 15 10 Clear CLR 52 36     55%     30        
Oct 13 14:55 SSW 14 10 Clear CLR 52 36     54%     30.01        
Oct 13 14:35 WSW 11 10 Clear CLR 52 36     55%     30.01        
Oct 13 14:15 WSW 13 10 Partly Cloudy SCT037 51 35     54%     30.02        
Oct 13 13:55 WSW 7 10 Partly Cloudy SCT037 51 35     56%     30.03        
Oct 13 13:35 SW 7 10 Clear CLR 51 35     55%     30.03        
Oct 13 13:15 SW 8 10 Clear CLR 50 35     56% 46   30.04        
Oct 13 12:55 SSW 13 10 Clear CLR 50 35     57% 45   30.04        
Oct 13 12:35 SW 8 10 Clear CLR 48 34     57% 45   30.05        
Oct 13 12:15 SW 9 10 Clear CLR 48 33     56% 44   30.05        
Oct 13 11:55 SW 9 10 Clear CLR 47 34     58% 43   30.06        
Oct 13 11:35 SSW 8 10 Partly Cloudy SCT029 47 34     62% 43   30.07        
Oct 13 11:15 S 9 10 Partly Cloudy SCT029 46 34     61% 42   30.08        
Oct 13 10:55 SW 10 10 Clear CLR 45 34     64% 40   30.08        
Oct 13 10:35 SSW 7 10 Clear CLR 45 34     67% 41   30.06        
Oct 13 10:15 SSW 10 10 Clear CLR 44 35     70% 38   30.07        
Oct 13 09:55 SW 6 10 Clear CLR 42 34     73% 39   30.07        
Oct 13 09:35 SW 6 10 Clear CLR 41 36     82% 37   30.07        
Oct 13 09:15 WSW 6 10 Clear CLR 40 36     86% 36   30.06        
Oct 13 08:55 WSW 3 7 Clear CLR 38 36     91% 36   30.04        
Oct 13 07:35 SSW 3 2.5 Fog/Mist CLR 32 32     99% 29   30.04        
Oct 13 06:15 W 5 4 Fog/Mist CLR 33 32     96% 29   30.02        
Oct 13 05:35 W 3 4 Fog/Mist CLR 33 32     96% 30   30.01        
Oct 13 04:55 WSW 5 5 Fog/Mist CLR 34 33     95% 30   30.02        
Oct 13 04:35 WSW 6 5 Fog/Mist CLR 35 33     93% 29   30.01        
Oct 13 04:15 W 3 7 Clear CLR 35 33     93% 32   30        
Oct 13 03:35 W 6 7 Partly Cloudy SCT008 36 34     93% 31   29.99        
Oct 13 03:15 WNW 5 7 Mostly Cloudy BKN006 36 34     94% 32   29.98        
Oct 13 02:35 W 7 7 Cloudy OVC006 36 35     94% 31   29.98        
Oct 13 01:15 W 6 5 Fog/Mist CLR 35 34     94% 30   29.97        
Oct 13 00:55 W 5 7 Clear CLR 36 34     93% 32   29.97        
Oct 13 00:15 W 5 7 Partly Cloudy SCT009 36 34     92% 32   29.96        
Oct 12 23:40 W 5 10 Partly Cloudy SCT011 36 34     92% 32   29.96        
Oct 12 23:15 W 5 10 Partly Cloudy SCT013 36 34     91% 32   29.96        
Oct 12 22:35 W 5 10 Clear CLR 36 34     90% 33   29.95        
Oct 12 22:15 W 8 10 Partly Cloudy SCT013 37 34     90% 31   29.95        
Oct 12 19:35 WSW 9 10 Light Rain OVC011 38 35     89% 32   29.93        
Oct 12 19:15 WSW 9 10 Light Rain OVC013 38 35     88% 32   29.93        
Oct 12 18:55 WSW 8 10 Light Rain BKN013 OVC020 38 35     86% 33   29.93        
Oct 12 18:35 WSW 8 10 Light Drizzle BKN013 BKN022 OVC050 38 34     85% 33   29.93        
Notice The following observation data may not be complete
Oct 12 15:35   10 Light Drizzle SCT013 BKN050 OVC060          %              
Oct 12 15:15 WSW 7 10 Light Rain BKN013 OVC050 38 34     85% 33   29.96        
Oct 12 12:15 W 10 10 Cloudy BKN026 BKN065 OVC090 41 32     69% 35   30.02        
Notice The following observation data may not be complete
Oct 12 10:15   10 Cloudy OVC110          %              
Oct 12 09:35 W 7 10 Mostly Cloudy BKN110 42 32     66% 38   30.04        
Oct 12 07:55 WNW 3 10 Clear CLR 35 32     87% 33   30.03        
Oct 12 06:55 W 7 10 Clear CLR 34 31     90% 28   30.04        
Oct 12 06:35 WSW 6 10 Clear CLR 34 31     89% 29   30.04        
Oct 12 06:15 W 3 10 Clear CLR 34 31     88% 31   30.04        
Oct 12 05:35 W 3 10 Clear CLR 34 31     88% 31   30.03        
Oct 12 04:35 W 3 10 Clear CLR 35 31     87% 32   30.05        
Oct 12 04:15 W 3 10 Clear CLR 35 31     86% 32   30.04        
Notice The following observation data may not be complete
Oct 12 01:15   10 Clear CLR          %              
Oct 12 00:15 WNW 3 10 Clear CLR 39 32     75% 37   30.05        
Oct 11 23:35 W 6 10 Clear   39 32     75% 35   30.04        
Oct 11 23:15 WNW 3 10 Clear   40 32     72% 38   30.04        
Oct 11 22:55 WNW 3 10 Clear   41 32     70% 39   30.04        
Oct 11 22:15 NW 6 10 Clear CLR 42 32     66% 38   30.04        
Oct 11 19:15 W 8 10 Clear CLR 45 33     62% 41   30        
Oct 11 18:15 WNW 6 10 Clear CLR 47 33     58% 44   29.99        
Oct 11 17:35 WNW 7 10 Clear CLR 49 33     54% 46   29.99        
Oct 11 17:15 WNW 13 10 Clear CLR 49 33     53% 45   29.98        
Oct 11 16:15 W 18 10 Partly Cloudy SCT040 50 33     51%     29.97        
Oct 11 15:35 W 18 10 Partly Cloudy SCT040 51 34     51%     29.96        
Notice The following observation data may not be complete
Oct 11 14:35   10 Partly Cloudy SCT039          %              
Oct 11 13:35 W 14 10 Partly Cloudy SCT037 51 35     53%     29.95        
Oct 11 12:55 W 17 10 Mostly Cloudy BKN033 49 34     56% 43   29.96        
Oct 11 12:35 W 21 10 Mostly Cloudy and Windy BKN033 50 35     57% 43   29.96        
Oct 11 11:35 WNW 13 10 Partly Cloudy SCT033 47 34     59% 42   29.96        
Notice The following observation data may not be complete
Oct 11 11:15   10 Partly Cloudy SCT031          %              
Oct 11 10:15 W 16 10 Mostly Cloudy BKN029 46 33     60% 40   29.94        
Oct 11 09:35 W 22 10 Cloudy and Windy OVC027 45 33     63% 36   29.94        
Oct 11 06:35   10 Mostly Cloudy BKN031 45 35     67%     29.88        
Notice The following observation data may not be complete
Oct 11 05:35   10 Cloudy OVC031          %              
Oct 11 03:15 WNW 16 10 Cloudy OVC025 49 40     70% 43   29.82        
Oct 11 02:35 W 20 10 Cloudy and Windy OVC025 50 40     70% 43   29.82        
Oct 11 01:55 W 18 10 Cloudy OVC025 51 42     71%     29.81        
Oct 11 00:15 W 17 10 Cloudy OVC023 52 44     72%     29.78        
Oct 10 23:35 W 21 10 Cloudy and Windy OVC023 54 45     72%     29.76        
Oct 10 23:15 W 21 10 Cloudy and Windy OVC023 54 46     75%     29.76        
Oct 10 22:35 W 20 10 Cloudy and Windy OVC025 56 48     73%     29.74        
Oct 10 22:15 W 22 10 Cloudy and Windy OVC027 58 49     73%     29.74        
Oct 10 21:55 W 21 10 Cloudy and Windy OVC032 58 50     72%     29.72        
Oct 10 17:55 SSW 8 10 Mostly Cloudy BKN013 68 66     92%     29.63        
Oct 10 16:35 SW 6 10 Cloudy SCT017 BKN030 OVC035 69 68     97%     29.62   0    
Oct 10 16:15 WSW 9 4 Rain SCT005 BKN028 OVC034 67 65     94%     29.63   0    
Notice The following observation data may not be complete
Oct 10 15:35   10 Light Rain OVC009          %              
Oct 10 14:35 S 13 10 Light Rain OVC008 69 68     95%     29.63   0    
Oct 10 12:55 SSE 15 10 Cloudy BKN010 OVC025 71 68     90%   72 29.67       0
Oct 10 11:35 S 10 10 Cloudy OVC008 70 67     92%     29.71        
Oct 10 10:55 S 11 10 Light Rain BKN008 OVC012 68 67     94%     29.72   0    
Oct 10 08:55 SSE 15 10 Cloudy OVC100 70 63     79%   71 29.76        
Oct 10 07:55 SSE 14 10 Partly Cloudy SCT075 70 63     79%     29.76        
Notice The following observation data may not be complete
Oct 10 07:35   10 Clear CLR          %              
Oct 10 07:15 E 11 10 Clear CLR 69 62     80%     29.76        
Oct 10 06:15 S 10 10 Clear CLR 69 62     79%     29.78        
Oct 10 05:35 S 11 10 Clear CLR 69 62     80%     29.8        
Oct 10 04:40 S 9 10 Clear CLR 69 63     80%     29.81        
Notice The following observation data may not be complete
Oct 10 04:15   10 Clear CLR          %              
Oct 10 00:55 S 10 10 Clear CLR 72 63     75%   72 29.86        
Oct 10 00:15 SSE 11 10 Clear CLR 72 63     73%   73 29.87        
Oct 09 21:55 SSE 7 10 Clear CLR 74 63     68%   75 29.89        
Oct 09 21:35 SSE 9 10 Clear CLR 75 63     66%   76 29.9        
Notice The following observation data may not be complete
Oct 09 20:15   10 Clear CLR          %              
Oct 09 19:55 SSE 10 10 Clear CLR 77 63     63%   77 29.9        
Oct 09 18:35 S 8 10 Clear CLR 79 64     60%   79 29.91        
Oct 09 16:55 S 10 10 Partly Cloudy SCT060 SCT070 SCT080 82 64     55%   83 29.91        
Oct 09 16:35 S 10 10 Partly Cloudy SCT070 82 64     55%   83 29.91        
Notice The following observation data may not be complete
Oct 09 15:35   10 Cloudy SCT048 SCT070 OVC100          %              
Oct 09 14:55 S 11 10 Mostly Cloudy BKN100 84 65     53%   86 29.95        
Oct 09 10:35 S 13 10 Clear CLR 79 68     70%   82 30.04        
Notice The following observation data may not be complete
Oct 09 09:35   10 Clear CLR          %              
Notice The following observation data may not be complete
Oct 09 04:35   10 Clear CLR          %              
Oct 09 01:55 S 7 10 Clear CLR 69 65     86%     30.05        
Oct 09 01:35 S 7 10 Clear CLR 69 64     86%     30.05        
Oct 09 00:15 S 8 10 Clear CLR 70 65     82%   71 30.05        
Oct 08 23:35 S 8 10 Clear CLR 72 64     78%   72 30.05        
Oct 08 23:15 S 9 10 Clear CLR 71 64     79%   72 30.05        
Notice The following observation data may not be complete
Oct 08 22:35   10 Clear CLR          %              
Oct 08 19:35 SSE 5 10 Clear CLR 71 62     71%   72 30.03        
Oct 08 19:15 S 3 10 Clear CLR 72 62     70%   72 30.03        
Notice The following observation data may not be complete
Oct 08 18:35 S 7 10 Clear CLR   62      %     30.03        
Oct 08 18:15 S 6 10 Clear CLR 76 62     61%   76 30.03        
Oct 08 16:35 SSW 13 10 Partly Cloudy SCT060 84 63     50%   85 30.03        
Oct 08 16:15 SW 16 10 Mostly Cloudy BKN050 BKN070 84 64     51%   86 30.03        
Oct 08 15:35 SSW 10 10 Mostly Cloudy SCT047 BKN065 BKN070 82 67     59%   85 30.03        
Oct 08 15:15 SW 17 10 Partly Cloudy SCT044 SCT055 SCT075 83 66     56%   85 30.04        
Oct 08 12:15 SSW 9 10 Partly Cloudy SCT048 SCT055 81 71     71%   84 30.08        
Oct 08 11:15 S 13 10 Clear CLR 78 69     75%   79 30.09        
Oct 08 10:15 SSW 10 10 Clear CLR 76 69     80%   77 30.1        
Oct 08 09:55 S 10 10 Clear CLR 73 69     86%   74 30.1        
Oct 08 09:15 S 8 10 Clear CLR 70 68     92%   71 30.1        
Oct 08 08:35 SSE 6 4 Fog/Mist SCT004 68 68     100%     30.1        
Notice The following observation data may not be complete
Oct 08 08:15   3 Fog/Mist BKN004          %              
Oct 08 06:55 SSE 6 2 Fog/Mist OVC002 65 65     100%     30.09        
Oct 08 04:55 SE 9 1.25 Fog/Mist OVC002 65 65     100%     30.08        
Oct 08 04:15 SSE 10 1.25 Fog/Mist OVC002 66 66     100%     30.08        
Oct 08 03:55 SE 9 1 Fog/Mist OVC002 66 66     100%     30.09        
Oct 08 02:15 SSE 6 5 Fog/Mist SCT004 SCT029 OVC090 67 67     100%     30.12        
Oct 08 01:15 SE 8 5 Fog/Mist SCT004 BKN090 OVC120 66 66     100%     30.11        
Oct 08 00:15 ESE 6 10 Cloudy BKN090 OVC110 63 63     100%     30.11        
Oct 07 23:15 ESE 6 7 Light Rain SCT050 BKN100 64 64     100%     30.13   0    
Oct 07 20:55 NE 5 2 Light Rain OVC003 63 63     100%     30.13        
Oct 07 20:35 NE 3 2.5 Light Rain OVC003 63 63     100%     30.14        
Oct 07 19:55 NNE 3 1.75 Fog/Mist OVC003 62 62     100%     30.15        
Oct 07 18:15 ENE 5 1 Fog/Mist OVC003 60 60     100%     30.16        
Oct 07 17:15 NE 9 1.75 Fog/Mist OVC003 59 59     100%     30.15        
Notice The following observation data may not be complete
Oct 07 15:35   0.5 Drizzle OVC003          %              
Oct 07 15:15 N 9 0.5 Drizzle OVC003 59 59     100%     30.16        
Oct 07 14:55 N 9 0.75 Drizzle OVC003 60 60     99%     30.16        
Notice The following observation data may not be complete
Oct 07 12:15   1.75 Fog/Mist OVC003          %              
Oct 07 11:15 NNE 8 1.75 Fog/Mist OVC003 60 60     99%     30.2        
Oct 07 10:55 NE 3 2 Fog/Mist OVC003 60 60     99%     30.21        
Oct 07 10:15 NNE 6 2.5 Fog/Mist OVC003 60 59     99%     30.21        
Oct 07 09:55 NNE 5 2.5 Fog/Mist OVC003 60 59     99%     30.21        
Notice The following observation data may not be complete
May 15 09:15   10 Partly Cloudy SCT017 SCT032          %              
May 14 23:15 SE 5 1.5 Cloudy BKN015 BKN024 OVC038 63 63     98%     29.85   0    
May 14 10:15 Calm 10 Cloudy OVC090 65 65     99%     29.98        
May 14 06:55   7 Cloudy BKN050 BKN065 OVC080 58 57     97%     30.01        
May 14 02:35 SE 3 7 Clear CLR 52 52     100%     29.92        
May 13 22:55 Calm 7 Mostly Cloudy BKN085 52 51     98%     29.99        
May 13 14:15 N 7 10 Partly Cloudy SCT080 64 57     78%     30.02        
May 13 12:35 NNE 5 7 Clear   63 58     82%     30.04        
May 13 12:15 NNE 7 7 Mostly Cloudy BKN100 62 57     83%     30.04        
Notice The following observation data may not be complete
May 13 09:15   4 Fog/Mist OVC005          %              
May 13 01:15 NE 8 3 Thunderstorms and Rain OVC003 50 50     100% 47   30.05        
May 12 23:35 NE 3 5 Fog/Mist OVC005 47 47     100% 46   30.04        
May 12 16:35 ENE 8 2 Clear   47 47     100% 43   30.04        
May 12 14:15 NNE 9 7 Cloudy OVC012 48 46     93% 44   30.11        
Notice The following observation data may not be complete
May 12 13:15   7 Cloudy OVC012          %              
May 12 12:35 NNE 11 10 Cloudy OVC010 50 47     90% 45   30.1        
May 12 03:35 NNE 13 10 Clear   47 45     93% 42   29.96        
May 12 01:55 NE 13 10 Cloudy OVC080 49 46     92% 44   29.95        
Notice The following observation data may not be complete
May 12 00:35   10 Cloudy OVC090          %              
May 11 23:35 NNE 6 10 Cloudy OVC090 51 47     89%     29.96        
May 11 22:55 NE 5 10 Cloudy SCT090 OVC120 50 47     90% 48   29.96        
May 11 22:35 NNE 6 10 Cloudy OVC120 50 47     90% 48   29.96        
May 11 21:55 NE 6 10 Cloudy OVC110 50 47     90% 47   29.96        
May 11 20:55 NE 10 10 Mostly Cloudy SCT070 BKN095 50 47     90% 46   29.94        
May 11 13:15 E 15 10 Clear CLR 58 51     76%     29.94        
Jun 12 07:35 W 13 10 Clear CLR 76 61     60%   76 29.99        
Jun 12 01:55 SSW 10 10 Clear CLR 73 58     58%   73 29.96        
Jun 11 21:15 S 14 10 Clear CLR 81 56     42%   81 29.89        
Notice The following observation data may not be complete
Jun 11 16:35   10 Clear CLR          %              
Jun 11 12:35 SW 18 10 Clear CLR 88 59     38%   88 29.96        
Notice The following observation data may not be complete
Jun 11 12:15   10 Clear CLR          %              
Jun 11 10:35 WSW 16 10 Clear CLR 84 60     44%   84 29.99        
Notice The following observation data may not be complete
Jun 11 02:35   10 Clear CLR          %              
Notice The following observation data may not be complete
Jun 10 20:15   10 Clear CLR          %              
Jun 10 17:55 SSW 23 10 Clear and Windy CLR 87 47     24%   84 29.81        
Jun 10 15:55   10 Clear CLR 89 47     24%   86 29.83        
Jun 10 15:15 SSW 23 7 Clear and Windy CLR 89 49     26%   86 29.83        
Jun 10 13:15   10 Clear CLR 87 49     28%   84 29.87        
Jun 10 10:55 SW 20 10 Clear and Windy CLR 82 53     37%   81 29.89        
Jun 10 08:15 SW 9 10 Clear CLR 71 56     59%   70 29.91        
Notice The following observation data may not be complete
Jun 09 23:15   10 Clear CLR          %              
Jun 09 18:55 NNE 8 10 Mostly Cloudy SCT085 BKN110 72 56     56%   72 29.8        
Notice The following observation data may not be complete
Jun 09 18:15   10 Mostly Cloudy SCT030 BKN085          %              
Jun 09 16:35 NE 13 10 Clear   83 55     38%   82 29.77        
Jun 09 16:15   10 Partly Cloudy SCT090 88 52     29%   86 29.76        
Jun 09 10:35 W 11 10 Clear CLR 80 54     40%   80 29.82        
Notice The following observation data may not be complete
Jun 09 09:15   10 Partly Cloudy SCT095          %              
Jun 09 06:55 NNW 9 10 Partly Cloudy SCT100 SCT120 68 50     53%     29.81        
Notice The following observation data may not be complete
Jun 09 04:35   10 Clear CLR          %              
Jun 09 00:15 Calm 10 Clear   64 49     57%     29.85        
Jun 08 23:15 S 7 10 Mostly Cloudy BKN100 65 49     55%     29.85        
Jun 08 18:55 WSW 6 10 Clear CLR 77 41     27%   76 29.86        
Notice The following observation data may not be complete
Jun 07 22:15   10 Clear CLR          %              
Notice The following observation data may not be complete
Jun 07 21:15   10 Clear CLR          %              
Jun 07 14:35 NE 9 10 Clear CLR 71 45     40%   70 30.11        
Jun 07 11:55 NNE 11 10 Clear CLR 69 48     48%     30.14        
Jun 07 10:55 NNE 11 10 Clear CLR 67 48     49%     30.15        
Notice The following observation data may not be complete
Jun 07 09:15   10 Clear CLR          %              
Jun 06 09:55 NNE 10 10 Clear CLR 63 48     59%     30.06        
Notice The following observation data may not be complete
Jun 06 09:15   10 Clear CLR          %              
Jun 06 04:35 N 7 10 Clear CLR 55 49     81%     29.99        
Jun 06 00:35 N 10 10 Clear CLR 57 45     64%     29.96        
Notice The following observation data may not be complete
Jun 05 19:15   10 Clear CLR          %